AFR443 SBGL-LFPG

Flight info

Callsign AFR443
Flight time N/A
Altitude 35000
Route UKENU UN857 FNR/N0450F270 UB623 CVS/N0475F370 UN873 IPERA/N0474F390 N873 ODEGI/N0473F400 N873 GDV N858 VASTO UN858 AKUDA/N0401F240 UZ1 VFA UL14 ALAGU/N0470F400 DCT BABOV N873 DELOG DCT YURZI UL14 TEPRA UN867 MOKOR/N0455F340 UN741 NTS/N0431F300 UN741 KEPER
Aircraft B772/H-SDE2E3FGHIJ5LORVWXY/LB1D1

Departure

Time N/A
Airport Rio Galeão – Tom Jobim International Airport (SBGL)

Arrival

Time 2026-05-01 14:38
Airport Charles de Gaulle International Airport (LFPG)
Time Latitude Longitude Altitude Speed Heading
2026-05-01 07:23 -1.51326 -31.37512 34910 ft 496 kts 23°
2026-05-01 07:24 -1.41784 -31.33470 34909 ft 495 kts 24°
2026-05-01 07:24 -1.35438 -31.30782 34911 ft 495 kts 23°
2026-05-01 07:25 -1.29137 -31.28113 34909 ft 494 kts 23°
2026-05-01 07:25 -1.22789 -31.25425 34907 ft 494 kts 23°
2026-05-01 07:26 -1.16453 -31.22741 34907 ft 494 kts 23°
2026-05-01 07:26 -1.10152 -31.20073 34909 ft 495 kts 23°
2026-05-01 07:27 -1.03812 -31.17388 34903 ft 495 kts 23°
2026-05-01 07:27 -0.97454 -31.14696 34906 ft 495 kts 23°
2026-05-01 07:28 -0.91108 -31.12008 34910 ft 495 kts 23°
2026-05-01 07:28 -0.84801 -31.09337 34908 ft 495 kts 23°
2026-05-01 07:29 -0.78461 -31.06586 34914 ft 495 kts 24°
2026-05-01 07:29 -0.72177 -31.03749 34916 ft 495 kts 25°
2026-05-01 07:30 -0.65932 -31.00925 34915 ft 495 kts 24°
2026-05-01 07:30 -0.59646 -30.98099 34917 ft 495 kts 24°
2026-05-01 07:31 -0.53352 -30.95279 34912 ft 496 kts 24°
2026-05-01 07:32 -0.37600 -30.88221 34908 ft 496 kts 24°
2026-05-01 07:33 -0.28151 -30.83986 34909 ft 495 kts 24°
2026-05-01 07:33 -0.18745 -30.79770 34913 ft 495 kts 24°
2026-05-01 07:34 -0.09306 -30.75540 34910 ft 495 kts 24°
2026-05-01 07:35 -0.03059 -30.72740 34917 ft 495 kts 24°
2026-05-01 07:35 0.03231 -30.69921 34913 ft 495 kts 24°
2026-05-01 07:36 0.09530 -30.67097 34914 ft 495 kts 24°
2026-05-01 07:36 0.15817 -30.64280 34910 ft 494 kts 23°
2026-05-01 07:37 0.25176 -30.60085 34911 ft 493 kts 24°
2026-05-01 07:37 0.31443 -30.57275 34915 ft 493 kts 24°
2026-05-01 07:38 0.37696 -30.54472 34911 ft 493 kts 24°
2026-05-01 07:39 0.47096 -30.50257 34912 ft 494 kts 24°
2026-05-01 07:39 0.56507 -30.46032 34914 ft 495 kts 23°
2026-05-01 07:40 0.62782 -30.43215 34916 ft 495 kts 23°
2026-05-01 07:40 0.69027 -30.40411 34912 ft 495 kts 23°
2026-05-01 07:41 0.75321 -30.37586 34915 ft 495 kts 23°
2026-05-01 07:42 0.84750 -30.33353 34915 ft 495 kts 23°
2026-05-01 07:42 0.90996 -30.30549 34914 ft 495 kts 23°
2026-05-01 07:43 0.97282 -30.27726 34919 ft 495 kts 23°
2026-05-01 07:43 1.06715 -30.23491 34917 ft 495 kts 22°
2026-05-01 07:44 1.19252 -30.17860 34912 ft 495 kts 22°
2026-05-01 07:45 1.25539 -30.15037 34916 ft 495 kts 23°
2026-05-01 07:45 1.31819 -30.12217 34915 ft 494 kts 23°
2026-05-01 07:46 1.38067 -30.09411 34915 ft 495 kts 23°
2026-05-01 07:47 1.47499 -30.05173 34919 ft 496 kts 23°
2026-05-01 07:47 1.53789 -30.02347 34914 ft 496 kts 23°
2026-05-01 07:48 1.63221 -29.98110 34916 ft 495 kts 24°
2026-05-01 07:48 1.69522 -29.95284 34920 ft 495 kts 22°
2026-05-01 07:49 1.78925 -29.91066 34916 ft 496 kts 23°
2026-05-01 07:50 1.85230 -29.88235 34918 ft 496 kts 23°
2026-05-01 07:50 1.94696 -29.83985 34914 ft 497 kts 23°
2026-05-01 07:51 1.99935 -29.81633 34919 ft 497 kts 23°
2026-05-01 07:52 2.10416 -29.76926 34925 ft 496 kts 24°
2026-05-01 07:52 2.15666 -29.74567 34923 ft 497 kts 24°
2026-05-01 07:53 2.25134 -29.70315 34920 ft 497 kts 24°
2026-05-01 07:53 2.31442 -29.67481 34923 ft 497 kts 23°
2026-05-01 07:55 2.47234 -29.60386 34919 ft 496 kts 24°
2026-05-01 07:56 2.62922 -29.53335 34922 ft 495 kts 23°
2026-05-01 07:57 2.72337 -29.49103 34922 ft 494 kts 24°
2026-05-01 07:58 2.84891 -29.43459 34931 ft 495 kts 23°
2026-05-01 07:59 2.97464 -29.37804 34924 ft 495 kts 23°
2026-05-01 08:00 3.16274 -29.29341 34930 ft 495 kts 24°
2026-05-01 08:01 3.28813 -29.23699 34929 ft 495 kts 23°
2026-05-01 08:02 3.38252 -29.19449 34926 ft 495 kts 23°
2026-05-01 08:03 3.47688 -29.15204 34926 ft 496 kts 23°
2026-05-01 08:03 3.57132 -29.10958 34926 ft 496 kts 23°
2026-05-01 08:04 3.69704 -29.05300 34935 ft 496 kts 24°
2026-05-01 08:05 3.79155 -29.01045 34935 ft 496 kts 24°
2026-05-01 08:06 3.88595 -28.96794 34931 ft 495 kts 24°
2026-05-01 08:07 4.01098 -28.91163 34931 ft 493 kts 24°
2026-05-01 08:08 4.10489 -28.86932 34929 ft 492 kts 24°
2026-05-01 08:09 4.22932 -28.81324 34934 ft 490 kts 24°
2026-05-01 08:09 4.29151 -28.78521 34934 ft 490 kts 24°
2026-05-01 08:10 4.41563 -28.72924 34938 ft 491 kts 24°
2026-05-01 08:11 4.54040 -28.67295 34939 ft 492 kts 24°
2026-05-01 08:12 4.63374 -28.63083 34938 ft 492 kts 24°
2026-05-01 08:13 4.72748 -28.58852 34943 ft 491 kts 24°
2026-05-01 08:13 4.82069 -28.54643 34940 ft 489 kts 23°
2026-05-01 08:14 4.88225 -28.51863 34941 ft 488 kts 23°
2026-05-01 08:14 4.94411 -28.49069 34942 ft 487 kts 23°
2026-05-01 08:15 5.03674 -28.44883 34942 ft 486 kts 22°
2026-05-01 08:16 5.09844 -28.42094 34952 ft 487 kts 22°
2026-05-01 08:16 5.16032 -28.39297 34955 ft 489 kts 21°
2026-05-01 08:17 5.22218 -28.36501 34949 ft 491 kts 22°
2026-05-01 08:17 5.28453 -28.33682 34953 ft 492 kts 22°
2026-05-01 08:18 5.34714 -28.30850 34947 ft 493 kts 22°
2026-05-01 08:19 5.47202 -28.25198 34955 ft 493 kts 22°
2026-05-01 08:19 5.53461 -28.22365 34954 ft 493 kts 22°
2026-05-01 08:20 5.59715 -28.19533 34955 ft 493 kts 22°
2026-05-01 08:20 5.65959 -28.16705 34956 ft 492 kts 22°
2026-05-01 08:21 5.72212 -28.13873 34955 ft 492 kts 22°
2026-05-01 08:21 5.78416 -28.11062 34958 ft 491 kts 22°
2026-05-01 08:22 5.84646 -28.08239 34962 ft 491 kts 22°
2026-05-01 08:22 5.90870 -28.05417 34956 ft 490 kts 22°
2026-05-01 08:23 5.97089 -28.02598 34963 ft 490 kts 22°
2026-05-01 08:23 6.03311 -27.99776 34962 ft 490 kts 22°
2026-05-01 08:24 6.09489 -27.96973 34963 ft 490 kts 22°
2026-05-01 08:24 6.15706 -27.94153 34965 ft 490 kts 22°
2026-05-01 08:25 6.21923 -27.91331 34968 ft 490 kts 22°
2026-05-01 08:25 6.28143 -27.88507 34968 ft 490 kts 22°
2026-05-01 08:26 6.34372 -27.85678 34969 ft 490 kts 22°
2026-05-01 08:26 6.40557 -27.82869 34970 ft 491 kts 22°
2026-05-01 08:27 6.46794 -27.80035 34970 ft 491 kts 22°
2026-05-01 08:27 6.53023 -27.77204 34969 ft 491 kts 22°
2026-05-01 08:28 6.59210 -27.74391 34974 ft 491 kts 22°
2026-05-01 08:28 6.65447 -27.71555 34975 ft 491 kts 22°
2026-05-01 08:29 6.71679 -27.68720 34971 ft 491 kts 22°
2026-05-01 08:29 6.77911 -27.65884 34976 ft 491 kts 22°
2026-05-01 08:30 6.84140 -27.63048 34973 ft 491 kts 22°
2026-05-01 08:30 6.90375 -27.60210 34978 ft 492 kts 22°
2026-05-01 08:31 6.96567 -27.57388 34976 ft 492 kts 22°
2026-05-01 08:31 7.02816 -27.54540 34978 ft 492 kts 22°
2026-05-01 08:32 7.09047 -27.51698 34980 ft 492 kts 22°
2026-05-01 08:32 7.15284 -27.48852 34984 ft 492 kts 22°
2026-05-01 08:33 7.21493 -27.46019 34980 ft 492 kts 22°
2026-05-01 08:33 7.27734 -27.43170 34980 ft 492 kts 22°
2026-05-01 08:34 7.33967 -27.40324 34982 ft 492 kts 22°
2026-05-01 08:34 7.40205 -27.37474 34981 ft 491 kts 22°
2026-05-01 08:35 7.46432 -27.34629 34988 ft 491 kts 22°
2026-05-01 08:35 7.52619 -27.31801 34986 ft 491 kts 22°
2026-05-01 08:36 7.58854 -27.28950 34985 ft 491 kts 22°
2026-05-01 08:36 7.65093 -27.26097 34987 ft 491 kts 22°
2026-05-01 08:37 7.71314 -27.23251 34989 ft 491 kts 22°
2026-05-01 08:37 7.77511 -27.20415 34989 ft 491 kts 22°
2026-05-01 08:38 7.83735 -27.17565 34991 ft 491 kts 22°
2026-05-01 08:38 7.89961 -27.14715 34988 ft 491 kts 22°
2026-05-01 08:39 7.96192 -27.11860 34989 ft 491 kts 22°
2026-05-01 08:39 8.01360 -27.09492 34993 ft 491 kts 22°
2026-05-01 08:40 8.11711 -27.04747 34996 ft 491 kts 22°
2026-05-01 08:40 8.16933 -27.02352 34997 ft 491 kts 22°
2026-05-01 08:41 8.23126 -26.99510 34997 ft 492 kts 22°
2026-05-01 08:41 8.29353 -26.96652 34994 ft 492 kts 22°
2026-05-01 08:42 8.35587 -26.93790 34993 ft 492 kts 22°
2026-05-01 08:42 8.41814 -26.90930 34999 ft 492 kts 22°
2026-05-01 08:43 8.48053 -26.88063 35003 ft 492 kts 22°
2026-05-01 08:43 8.54280 -26.85200 34998 ft 492 kts 22°
2026-05-01 08:44 8.60481 -26.82351 35000 ft 492 kts 22°
2026-05-01 08:44 8.66713 -26.79487 35002 ft 492 kts 22°
2026-05-01 08:45 8.72939 -26.76624 35002 ft 492 kts 22°
2026-05-01 08:45 8.79169 -26.73758 35003 ft 492 kts 22°
2026-05-01 08:46 8.85398 -26.70890 35003 ft 491 kts 22°
2026-05-01 08:46 8.91584 -26.68042 35002 ft 491 kts 22°
2026-05-01 08:47 8.97805 -26.65176 35002 ft 491 kts 22°
2026-05-01 08:47 9.04015 -26.62314 35003 ft 490 kts 22°
2026-05-01 08:48 9.10226 -26.59450 35007 ft 490 kts 22°
2026-05-01 08:48 9.16445 -26.56582 35011 ft 490 kts 22°
2026-05-01 08:49 9.22655 -26.53717 35009 ft 490 kts 22°
2026-05-01 08:49 9.28807 -26.50878 35011 ft 489 kts 22°
2026-05-01 08:50 9.35023 -26.48007 35011 ft 489 kts 22°
2026-05-01 08:50 9.41218 -26.45146 35014 ft 489 kts 22°
2026-05-01 08:51 9.47422 -26.42279 35013 ft 489 kts 22°
2026-05-01 08:51 9.53614 -26.39417 35014 ft 489 kts 22°
2026-05-01 08:52 9.59773 -26.36568 35013 ft 489 kts 22°
2026-05-01 08:52 9.65976 -26.33699 35015 ft 489 kts 22°
2026-05-01 08:53 9.72178 -26.30828 35019 ft 489 kts 22°
2026-05-01 08:53 9.78378 -26.27957 35019 ft 489 kts 22°
2026-05-01 08:54 9.84569 -26.25089 35019 ft 489 kts 22°
2026-05-01 08:54 9.90759 -26.22221 35019 ft 489 kts 22°
2026-05-01 08:55 9.96922 -26.19363 35020 ft 489 kts 22°
2026-05-01 08:55 10.03113 -26.16492 35019 ft 489 kts 22°
2026-05-01 08:56 10.09310 -26.13617 35019 ft 489 kts 22°
2026-05-01 08:56 10.15518 -26.10735 35019 ft 489 kts 22°
2026-05-01 08:57 10.21685 -26.07871 35017 ft 490 kts 22°
2026-05-01 08:57 10.27883 -26.04991 35020 ft 490 kts 22°
2026-05-01 08:58 10.34094 -26.02104 35025 ft 490 kts 22°
2026-05-01 08:58 10.40270 -25.99233 35024 ft 490 kts 22°
2026-05-01 08:59 10.46472 -25.96347 35024 ft 490 kts 22°
2026-05-01 08:59 10.52669 -25.93463 35026 ft 490 kts 22°
2026-05-01 09:00 10.58880 -25.90571 35028 ft 490 kts 22°
2026-05-01 09:00 10.65056 -25.87694 35034 ft 491 kts 22°
2026-05-01 09:01 10.71279 -25.84794 35031 ft 491 kts 22°
2026-05-01 09:01 10.77473 -25.81906 35032 ft 491 kts 22°
2026-05-01 09:02 10.83698 -25.79003 35033 ft 491 kts 22°
2026-05-01 09:02 10.89934 -25.76092 35031 ft 492 kts 22°
2026-05-01 09:03 10.96114 -25.73207 35033 ft 492 kts 22°
2026-05-01 09:03 11.02339 -25.70300 35033 ft 492 kts 22°
2026-05-01 09:04 11.08578 -25.67384 35032 ft 492 kts 22°
2026-05-01 09:04 11.14806 -25.64472 35033 ft 492 kts 22°
2026-05-01 09:05 11.21009 -25.61571 35035 ft 492 kts 22°
2026-05-01 09:05 11.27243 -25.58653 35035 ft 492 kts 22°
2026-05-01 09:06 11.33472 -25.55737 35035 ft 492 kts 22°
2026-05-01 09:06 11.39663 -25.52836 35035 ft 492 kts 22°
2026-05-01 09:07 11.45892 -25.49917 35036 ft 492 kts 22°
2026-05-01 09:07 11.52130 -25.46992 35036 ft 492 kts 22°
2026-05-01 09:08 11.58318 -25.44089 35042 ft 492 kts 22°
2026-05-01 09:08 11.64555 -25.41162 35041 ft 492 kts 22°
2026-05-01 09:09 11.70782 -25.38238 35041 ft 492 kts 22°
2026-05-01 09:09 11.77004 -25.35315 35042 ft 492 kts 22°
2026-05-01 09:10 11.83236 -25.32385 35041 ft 492 kts 22°
2026-05-01 09:10 11.89419 -25.29478 35044 ft 492 kts 22°
2026-05-01 09:11 11.95647 -25.26547 35042 ft 493 kts 22°
2026-05-01 09:11 12.01854 -25.23625 35043 ft 493 kts 22°
2026-05-01 09:12 12.08057 -25.20704 35046 ft 493 kts 22°
2026-05-01 09:12 12.14299 -25.17762 35046 ft 493 kts 22°
2026-05-01 09:13 12.20549 -25.14815 35047 ft 493 kts 22°
2026-05-01 09:13 12.26788 -25.11872 35050 ft 494 kts 22°
2026-05-01 09:14 12.33000 -25.08940 35046 ft 494 kts 22°
2026-05-01 09:14 12.39241 -25.05993 35047 ft 494 kts 22°
2026-05-01 09:15 12.45492 -25.03039 35049 ft 494 kts 22°
2026-05-01 09:15 12.51747 -25.00082 35048 ft 495 kts 22°
2026-05-01 09:16 12.57999 -24.97125 35053 ft 495 kts 22°
2026-05-01 09:17 12.67349 -24.92700 35053 ft 495 kts 22°
2026-05-01 09:17 12.76731 -24.88255 35050 ft 495 kts 22°
2026-05-01 09:18 12.86119 -24.83805 35056 ft 495 kts 22°
2026-05-01 09:19 12.95459 -24.79373 35061 ft 495 kts 22°
2026-05-01 09:20 13.04850 -24.74913 35054 ft 496 kts 22°
2026-05-01 09:21 13.17350 -24.68972 35063 ft 496 kts 22°
2026-05-01 09:21 13.26750 -24.64498 35057 ft 496 kts 22°
2026-05-01 09:22 13.39290 -24.58525 35062 ft 496 kts 22°
2026-05-01 09:23 13.48654 -24.54061 35063 ft 496 kts 22°
2026-05-01 09:24 13.58048 -24.49577 35060 ft 496 kts 22°
2026-05-01 09:25 13.70571 -24.43593 35061 ft 496 kts 22°
2026-05-01 09:26 13.79912 -24.39091 35067 ft 496 kts 22°
2026-05-01 09:26 13.89311 -24.34546 35063 ft 497 kts 22°
2026-05-01 09:27 13.98697 -24.30008 35066 ft 497 kts 22°
2026-05-01 09:28 14.04919 -24.26998 35067 ft 497 kts 22°
2026-05-01 09:28 14.11183 -24.23966 35068 ft 497 kts 22°
2026-05-01 09:29 14.20582 -24.19413 35068 ft 497 kts 22°
2026-05-01 09:30 14.29956 -24.14868 35074 ft 498 kts 22°
2026-05-01 09:30 14.38299 -24.10819 35073 ft 498 kts 22°
2026-05-01 09:31 14.44572 -24.07773 35062 ft 498 kts 22°
2026-05-01 09:32 14.53984 -24.03198 35077 ft 498 kts 22°
2026-05-01 09:32 14.63381 -23.98626 35075 ft 498 kts 22°
2026-05-01 09:33 14.69661 -23.95569 35080 ft 498 kts 22°
2026-05-01 09:34 14.79020 -23.91009 35071 ft 498 kts 22°
2026-05-01 09:34 14.88435 -23.86417 35073 ft 498 kts 22°
2026-05-01 09:35 14.97840 -23.81825 35075 ft 498 kts 22°
2026-05-01 09:36 15.04075 -23.78779 35070 ft 498 kts 21°
2026-05-01 09:36 15.10359 -23.75706 35086 ft 499 kts 22°
2026-05-01 09:37 15.16646 -23.72631 35064 ft 500 kts 22°
2026-05-01 09:37 15.26082 -23.68009 35064 ft 499 kts 22°
2026-05-01 09:38 15.35470 -23.63409 35088 ft 499 kts 22°
2026-05-01 09:39 15.44901 -23.58781 35078 ft 500 kts 21°
2026-05-01 09:39 15.51195 -23.55691 35083 ft 500 kts 21°
2026-05-01 09:40 15.60633 -23.51052 35087 ft 501 kts 21°
2026-05-01 09:41 15.66933 -23.47953 35086 ft 501 kts 21°
2026-05-01 09:41 15.76381 -23.43302 35100 ft 501 kts 21°
2026-05-01 09:42 15.82665 -23.40206 35094 ft 501 kts 21°
2026-05-01 09:43 15.95277 -23.33985 35099 ft 502 kts 21°
2026-05-01 09:43 16.01586 -23.30870 35101 ft 502 kts 21°
2026-05-01 09:44 16.11011 -23.26212 35105 ft 502 kts 21°
2026-05-01 09:45 16.17333 -23.23085 35095 ft 502 kts 21°
2026-05-01 09:45 16.26802 -23.18397 35089 ft 502 kts 21°
2026-05-01 09:46 16.33110 -23.15271 35089 ft 502 kts 21°
2026-05-01 09:46 16.39433 -23.12135 35090 ft 502 kts 21°
2026-05-01 09:47 16.45715 -23.09018 35079 ft 502 kts 21°
2026-05-01 09:47 16.52038 -23.05878 35080 ft 503 kts 21°
2026-05-01 09:48 16.58351 -23.02740 35077 ft 503 kts 21°
2026-05-01 09:48 16.64642 -22.99611 35077 ft 503 kts 21°
2026-05-01 09:49 16.70960 -22.96466 35077 ft 503 kts 21°
2026-05-01 09:49 16.77180 -22.93082 35078 ft 505 kts 26°
2026-05-01 09:50 16.83255 -22.89376 35077 ft 506 kts 26°
2026-05-01 09:50 16.89297 -22.85666 35103 ft 506 kts 26°
2026-05-01 09:51 16.95379 -22.81955 35105 ft 506 kts 26°
2026-05-01 09:51 17.01462 -22.78258 35106 ft 506 kts 26°
2026-05-01 09:52 17.07566 -22.74550 35104 ft 506 kts 26°
2026-05-01 09:52 17.13661 -22.70843 35120 ft 506 kts 26°
2026-05-01 09:53 17.19721 -22.67154 35109 ft 506 kts 26°
2026-05-01 09:53 17.25810 -22.63443 35109 ft 506 kts 26°
2026-05-01 09:54 17.31903 -22.59727 35115 ft 506 kts 26°
2026-05-01 09:54 17.37981 -22.56017 35113 ft 506 kts 26°
2026-05-01 09:55 17.44063 -22.52303 35129 ft 506 kts 26°
2026-05-01 09:55 17.50108 -22.48607 35120 ft 506 kts 26°
2026-05-01 09:56 17.56193 -22.44885 35116 ft 506 kts 26°
2026-05-01 09:56 17.62284 -22.41156 35114 ft 506 kts 26°
2026-05-01 09:57 17.68362 -22.37432 35119 ft 506 kts 26°
2026-05-01 09:57 17.74443 -22.33703 35114 ft 506 kts 26°
2026-05-01 09:58 17.80491 -22.29991 35135 ft 507 kts 26°
2026-05-01 09:58 17.86590 -22.26246 35126 ft 507 kts 26°
2026-05-01 09:59 17.92694 -22.22494 35121 ft 508 kts 26°
2026-05-01 09:59 17.98757 -22.18765 35109 ft 508 kts 26°
2026-05-01 10:00 18.04854 -22.15011 35123 ft 508 kts 26°
2026-05-01 10:00 18.10955 -22.11251 35126 ft 508 kts 26°
2026-05-01 10:01 18.17059 -22.07487 35131 ft 508 kts 26°
2026-05-01 10:01 18.23170 -22.03716 35132 ft 509 kts 26°
2026-05-01 10:02 18.29238 -21.99968 35118 ft 509 kts 26°
2026-05-01 10:02 18.35343 -21.96194 35118 ft 509 kts 26°
2026-05-01 10:03 18.41445 -21.92418 35130 ft 508 kts 26°
2026-05-01 10:03 18.47547 -21.88640 35148 ft 508 kts 26°
2026-05-01 10:04 18.53661 -21.84851 35122 ft 509 kts 26°
2026-05-01 10:04 18.59724 -21.81091 35128 ft 509 kts 26°
2026-05-01 10:05 18.65828 -21.77301 35127 ft 509 kts 26°
2026-05-01 10:05 18.71936 -21.73507 35128 ft 509 kts 26°
2026-05-01 10:06 18.78001 -21.69735 35130 ft 509 kts 26°
2026-05-01 10:06 18.84104 -21.65937 35142 ft 509 kts 26°
2026-05-01 10:07 18.90223 -21.62126 35129 ft 510 kts 26°
2026-05-01 10:07 18.96336 -21.58315 35128 ft 510 kts 26°
2026-05-01 10:08 19.05467 -21.52617 35128 ft 510 kts 26°
2026-05-01 10:09 19.11577 -21.48800 35131 ft 510 kts 26°
2026-05-01 10:09 19.17687 -21.44979 35142 ft 510 kts 26°
2026-05-01 10:10 19.23808 -21.41148 35129 ft 511 kts 26°
2026-05-01 10:10 19.32997 -21.35391 35132 ft 511 kts 26°
2026-05-01 10:11 19.39114 -21.31554 35130 ft 511 kts 26°
2026-05-01 10:11 19.45204 -21.27731 35128 ft 511 kts 26°
2026-05-01 10:12 19.50335 -21.24507 35146 ft 511 kts 26°
2026-05-01 10:13 19.60527 -21.18097 35133 ft 512 kts 26°
2026-05-01 10:13 19.66610 -21.14267 35131 ft 512 kts 26°
2026-05-01 10:14 19.75811 -21.08466 35133 ft 513 kts 26°
2026-05-01 10:14 19.81910 -21.04616 35134 ft 513 kts 26°
2026-05-01 10:15 19.88047 -21.00739 35137 ft 513 kts 26°
2026-05-01 10:15 19.94188 -20.96856 35131 ft 513 kts 26°
2026-05-01 10:16 20.00327 -20.92971 35134 ft 514 kts 26°
2026-05-01 10:17 20.09540 -20.87133 35130 ft 514 kts 26°
2026-05-01 10:17 20.18750 -20.81289 35134 ft 513 kts 26°
2026-05-01 10:18 20.27915 -20.75465 35133 ft 513 kts 26°
2026-05-01 10:19 20.34043 -20.71566 35133 ft 513 kts 26°
2026-05-01 10:19 20.40173 -20.67662 35133 ft 513 kts 26°
2026-05-01 10:20 20.48336 -20.62448 35134 ft 513 kts 26°
2026-05-01 10:20 20.54473 -20.58522 35150 ft 513 kts 26°
2026-05-01 10:21 20.63674 -20.52629 35136 ft 514 kts 26°
2026-05-01 10:22 20.72868 -20.46733 35134 ft 513 kts 26°
2026-05-01 10:23 20.82024 -20.40853 35135 ft 513 kts 26°
2026-05-01 10:23 20.91201 -20.34951 35145 ft 513 kts 26°
2026-05-01 10:24 21.03416 -20.27083 35137 ft 514 kts 26°
2026-05-01 10:25 21.15685 -20.19163 35139 ft 515 kts 26°
2026-05-01 10:26 21.21815 -20.15201 35155 ft 515 kts 26°
2026-05-01 10:27 21.34065 -20.07271 35142 ft 515 kts 26°
2026-05-01 10:28 21.43284 -20.01293 35143 ft 515 kts 26°
2026-05-01 10:28 21.52460 -19.95333 35139 ft 515 kts 26°
2026-05-01 10:29 21.61677 -19.89339 35152 ft 516 kts 26°
2026-05-01 10:30 21.73935 -19.81352 35144 ft 517 kts 26°
2026-05-01 10:31 21.86224 -19.73327 35143 ft 516 kts 26°
2026-05-01 10:32 21.95437 -19.67301 35138 ft 516 kts 26°
2026-05-01 10:33 22.07718 -19.59253 35152 ft 516 kts 26°
2026-05-01 10:34 22.16887 -19.53240 35157 ft 516 kts 26°
2026-05-01 10:34 22.23034 -19.49203 35171 ft 517 kts 26°
2026-05-01 10:35 22.32264 -19.43133 35153 ft 518 kts 26°
2026-05-01 10:35 22.38424 -19.39075 35149 ft 518 kts 26°
2026-05-01 10:36 22.47640 -19.32996 35154 ft 517 kts 26°
2026-05-01 10:37 22.53786 -19.28937 35152 ft 517 kts 26°
2026-05-01 10:37 22.62972 -19.22864 35160 ft 519 kts 26°
2026-05-01 10:38 22.69142 -19.18778 35156 ft 519 kts 26°
2026-05-01 10:38 22.75315 -19.14686 35152 ft 520 kts 26°
2026-05-01 10:39 22.81486 -19.10591 35149 ft 520 kts 26°
2026-05-01 10:39 22.87613 -19.06520 35155 ft 519 kts 26°
2026-05-01 10:40 22.93776 -19.02421 35165 ft 519 kts 26°
2026-05-01 10:40 22.99943 -18.98317 35155 ft 520 kts 26°
2026-05-01 10:41 23.06083 -18.94226 35154 ft 520 kts 26°
2026-05-01 10:42 23.15345 -18.88045 35155 ft 520 kts 26°
2026-05-01 10:42 23.21520 -18.83918 35155 ft 520 kts 26°
2026-05-01 10:43 23.27661 -18.79810 35175 ft 521 kts 26°
2026-05-01 10:43 23.33847 -18.75667 35164 ft 521 kts 26°
2026-05-01 10:44 23.40028 -18.71523 35159 ft 522 kts 26°
2026-05-01 10:44 23.46170 -18.67400 35159 ft 521 kts 26°
2026-05-01 10:45 23.52346 -18.63250 35155 ft 521 kts 26°
2026-05-01 10:45 23.58523 -18.59094 35155 ft 521 kts 26°
2026-05-01 10:46 23.64693 -18.54939 35160 ft 521 kts 26°
2026-05-01 10:46 23.70864 -18.50779 35158 ft 521 kts 26°
2026-05-01 10:47 23.77041 -18.46610 35159 ft 521 kts 26°
2026-05-01 10:47 23.83204 -18.42445 35154 ft 521 kts 26°
2026-05-01 10:48 23.89331 -18.38299 35181 ft 520 kts 26°
2026-05-01 10:48 23.95482 -18.34133 35154 ft 519 kts 26°
2026-05-01 10:49 24.01636 -18.29960 35169 ft 519 kts 26°
2026-05-01 10:49 24.07770 -18.25797 35160 ft 519 kts 26°
2026-05-01 10:50 24.13870 -18.21652 35158 ft 519 kts 26°
2026-05-01 10:50 24.20014 -18.17472 35157 ft 519 kts 26°
2026-05-01 10:51 24.26157 -18.13288 35174 ft 519 kts 26°
2026-05-01 10:51 24.32296 -18.09101 35164 ft 519 kts 26°
2026-05-01 10:52 24.38429 -18.04913 35160 ft 519 kts 26°
2026-05-01 10:52 24.44520 -18.00750 35162 ft 518 kts 26°
2026-05-01 10:53 24.50633 -17.96567 35164 ft 518 kts 26°
2026-05-01 10:53 24.56745 -17.92380 35184 ft 518 kts 26°
2026-05-01 10:54 24.62854 -17.88190 35170 ft 518 kts 26°
2026-05-01 10:54 24.68974 -17.83987 35166 ft 517 kts 26°
2026-05-01 10:55 24.75040 -17.79816 35165 ft 517 kts 26°
2026-05-01 10:55 24.81145 -17.75614 35168 ft 517 kts 26°
2026-05-01 10:56 24.87247 -17.71408 35188 ft 517 kts 26°
2026-05-01 10:56 24.93347 -17.67198 35165 ft 517 kts 26°
2026-05-01 10:57 24.99450 -17.62983 35168 ft 517 kts 26°
2026-05-01 10:57 25.05490 -17.58801 35166 ft 516 kts 26°
2026-05-01 10:58 25.11586 -17.54571 35169 ft 516 kts 26°
2026-05-01 10:58 25.17663 -17.50348 35169 ft 516 kts 26°
2026-05-01 10:59 25.23747 -17.46115 35176 ft 517 kts 26°
2026-05-01 10:59 25.29827 -17.41880 35168 ft 517 kts 26°
2026-05-01 11:00 25.35904 -17.37642 35169 ft 516 kts 26°
2026-05-01 11:00 25.41984 -17.33395 35175 ft 516 kts 26°
2026-05-01 11:01 25.48050 -17.29157 35175 ft 516 kts 26°
2026-05-01 11:01 25.54126 -17.24905 35190 ft 516 kts 27°
2026-05-01 11:02 25.60152 -17.20682 35178 ft 516 kts 27°
2026-05-01 11:02 25.66213 -17.16429 35172 ft 515 kts 27°
2026-05-01 11:03 25.72271 -17.12173 35177 ft 515 kts 27°
2026-05-01 11:03 25.78322 -17.07918 35177 ft 515 kts 27°
2026-05-01 11:04 25.84374 -17.03656 35177 ft 515 kts 27°
2026-05-01 11:04 25.90411 -16.99400 35180 ft 513 kts 27°
2026-05-01 11:05 25.96427 -16.95152 35172 ft 511 kts 27°
2026-05-01 11:05 26.02395 -16.90934 35179 ft 510 kts 27°
2026-05-01 11:06 26.08383 -16.86697 35181 ft 510 kts 27°
2026-05-01 11:06 26.14380 -16.82447 35181 ft 511 kts 27°
2026-05-01 11:07 26.23393 -16.76059 35167 ft 511 kts 28°
2026-05-01 11:07 26.29381 -16.71825 35182 ft 509 kts 28°
2026-05-01 11:08 26.34350 -16.68309 35184 ft 509 kts 27°
2026-05-01 11:09 26.43317 -16.61952 35188 ft 509 kts 28°
2026-05-01 11:09 26.49311 -16.57694 35203 ft 510 kts 28°
2026-05-01 11:10 26.58222 -16.51354 35178 ft 508 kts 28°
2026-05-01 11:10 26.64181 -16.47106 35180 ft 506 kts 28°
2026-05-01 11:11 26.70119 -16.42869 35188 ft 506 kts 28°
2026-05-01 11:11 26.76056 -16.38628 35183 ft 506 kts 28°
2026-05-01 11:12 26.81961 -16.34403 35181 ft 507 kts 28°
2026-05-01 11:12 26.87909 -16.30143 35182 ft 507 kts 28°
2026-05-01 11:13 26.93854 -16.25875 35181 ft 508 kts 28°
2026-05-01 11:13 26.99802 -16.21588 35181 ft 508 kts 28°
2026-05-01 11:14 27.05743 -16.17299 35191 ft 508 kts 28°
2026-05-01 11:14 27.11681 -16.13007 35182 ft 508 kts 28°
2026-05-01 11:15 27.17618 -16.08711 35190 ft 506 kts 29°
2026-05-01 11:15 27.23533 -16.04425 35180 ft 504 kts 29°
2026-05-01 11:16 27.29426 -16.00151 35185 ft 503 kts 29°
2026-05-01 11:16 27.35270 -15.95907 35184 ft 503 kts 29°
2026-05-01 11:17 27.41121 -15.91652 35181 ft 503 kts 29°
2026-05-01 11:17 27.47006 -15.87367 35198 ft 503 kts 30°
2026-05-01 11:18 27.52857 -15.83100 35184 ft 499 kts 30°
2026-05-01 11:18 27.58673 -15.78853 35178 ft 497 kts 30°
2026-05-01 11:19 27.64474 -15.74612 35180 ft 496 kts 30°
2026-05-01 11:19 27.70280 -15.70363 35181 ft 497 kts 30°
2026-05-01 11:20 27.76100 -15.66103 35192 ft 499 kts 30°
2026-05-01 11:20 27.81891 -15.61867 35185 ft 498 kts 30°
2026-05-01 11:21 27.87696 -15.57611 35180 ft 497 kts 30°
2026-05-01 11:21 27.93489 -15.53358 35185 ft 495 kts 30°
2026-05-01 11:22 27.99262 -15.49115 35178 ft 494 kts 30°
2026-05-01 11:22 28.05030 -15.44869 35183 ft 494 kts 30°
2026-05-01 11:23 28.10769 -15.40635 35195 ft 495 kts 30°
2026-05-01 11:23 28.16530 -15.36360 35191 ft 496 kts 30°
2026-05-01 11:24 28.22305 -15.32062 35187 ft 496 kts 31°
2026-05-01 11:25 28.30966 -15.25609 35189 ft 496 kts 31°
2026-05-01 11:25 28.39574 -15.19184 35207 ft 495 kts 30°
2026-05-01 11:26 28.48195 -15.12739 35201 ft 495 kts 30°
2026-05-01 11:27 28.53960 -15.08422 35186 ft 495 kts 31°
2026-05-01 11:27 28.59719 -15.04102 35184 ft 495 kts 31°
2026-05-01 11:28 28.65476 -14.99779 35188 ft 495 kts 31°
2026-05-01 11:28 28.71236 -14.95447 35200 ft 495 kts 30°
2026-05-01 11:29 28.79832 -14.88973 35195 ft 495 kts 31°
2026-05-01 11:30 28.88463 -14.82459 35201 ft 495 kts 31°
2026-05-01 11:30 28.94218 -14.78108 35201 ft 495 kts 31°
2026-05-01 11:31 28.99968 -14.73755 35200 ft 496 kts 31°
2026-05-01 11:31 29.05691 -14.69416 35207 ft 496 kts 30°
2026-05-01 11:32 29.11452 -14.65044 35203 ft 497 kts 31°
2026-05-01 11:32 29.17211 -14.60666 35203 ft 497 kts 31°
2026-05-01 11:33 29.22970 -14.56282 35202 ft 497 kts 31°
2026-05-01 11:33 29.28691 -14.51921 35202 ft 496 kts 31°
2026-05-01 11:34 29.34445 -14.47530 35209 ft 497 kts 30°
2026-05-01 11:34 29.40196 -14.43135 35200 ft 497 kts 30°
2026-05-01 11:35 29.45962 -14.38721 35198 ft 497 kts 31°
2026-05-01 11:35 29.51721 -14.34308 35201 ft 497 kts 31°
2026-05-01 11:36 29.57427 -14.29928 35201 ft 497 kts 31°
2026-05-01 11:36 29.63177 -14.25508 35214 ft 497 kts 30°
2026-05-01 11:37 29.68932 -14.21079 35208 ft 497 kts 30°
2026-05-01 11:37 29.74652 -14.16671 35204 ft 497 kts 30°
2026-05-01 11:38 29.80390 -14.12242 35197 ft 497 kts 30°
2026-05-01 11:38 29.86135 -14.07802 35198 ft 496 kts 30°
2026-05-01 11:39 29.91873 -14.03360 35200 ft 496 kts 31°
2026-05-01 11:39 29.97610 -13.98914 35198 ft 497 kts 31°
2026-05-01 11:40 30.03347 -13.94461 35201 ft 497 kts 31°
2026-05-01 11:40 30.09040 -13.90036 35202 ft 497 kts 31°
2026-05-01 11:41 30.14772 -13.85574 35201 ft 497 kts 31°
2026-05-01 11:41 30.20500 -13.81109 35202 ft 497 kts 31°
2026-05-01 11:42 30.26232 -13.76634 35198 ft 497 kts 30°
2026-05-01 11:42 30.31957 -13.72159 35195 ft 497 kts 30°
2026-05-01 11:43 30.37685 -13.67674 35196 ft 497 kts 30°
2026-05-01 11:43 30.43410 -13.63185 35193 ft 497 kts 30°
2026-05-01 11:44 30.51966 -13.56464 35193 ft 497 kts 31°
2026-05-01 11:44 30.57677 -13.51929 35200 ft 498 kts 31°
2026-05-01 11:45 30.63388 -13.47373 35190 ft 498 kts 31°
2026-05-01 11:45 30.69101 -13.42813 35194 ft 498 kts 31°
2026-05-01 11:46 30.74785 -13.38272 35193 ft 498 kts 31°
2026-05-01 11:46 30.80491 -13.33708 35193 ft 497 kts 31°
2026-05-01 11:47 30.86194 -13.29139 35202 ft 498 kts 30°
2026-05-01 11:47 30.91906 -13.24558 35194 ft 498 kts 30°
2026-05-01 11:48 30.97637 -13.19997 35191 ft 499 kts 30°
2026-05-01 11:48 31.03351 -13.15467 35191 ft 499 kts 30°
2026-05-01 11:49 31.09088 -13.10909 35194 ft 498 kts 30°
2026-05-01 11:49 31.14825 -13.06337 35212 ft 498 kts 30°
2026-05-01 11:50 31.20554 -13.01763 35196 ft 499 kts 30°
2026-05-01 11:50 31.26289 -12.97178 35190 ft 499 kts 30°
2026-05-01 11:51 31.32018 -12.92590 35189 ft 499 kts 30°
2026-05-01 11:51 31.37713 -12.88023 35194 ft 499 kts 30°
2026-05-01 11:52 31.43437 -12.83426 35204 ft 499 kts 30°
2026-05-01 11:52 31.49166 -12.78818 35196 ft 500 kts 30°
2026-05-01 11:53 31.54901 -12.74199 35195 ft 500 kts 30°
2026-05-01 11:53 31.60635 -12.69572 35189 ft 500 kts 30°
2026-05-01 11:54 31.66363 -12.64943 35193 ft 499 kts 30°
2026-05-01 11:54 31.72081 -12.60316 35206 ft 499 kts 30°
2026-05-01 11:55 31.77815 -12.55669 35192 ft 500 kts 30°
2026-05-01 11:55 31.83520 -12.51038 35189 ft 501 kts 30°
2026-05-01 11:56 31.89264 -12.46367 35189 ft 502 kts 30°
2026-05-01 11:56 31.95007 -12.41690 35191 ft 502 kts 30°
2026-05-01 11:57 31.99787 -12.37796 35191 ft 502 kts 30°
2026-05-01 11:57 32.05533 -12.33123 35196 ft 502 kts 30°
2026-05-01 11:58 32.11294 -12.28432 35189 ft 502 kts 30°
2026-05-01 11:59 32.19878 -12.21424 35194 ft 502 kts 30°
2026-05-01 11:59 32.25628 -12.16719 35193 ft 502 kts 30°
2026-05-01 12:00 32.34252 -12.09648 35206 ft 504 kts 30°
2026-05-01 12:01 32.42873 -12.02565 35199 ft 505 kts 30°
2026-05-01 12:01 32.48649 -11.97807 35190 ft 504 kts 30°
2026-05-01 12:02 32.54395 -11.93067 35192 ft 503 kts 30°
2026-05-01 12:02 32.60146 -11.88317 35217 ft 503 kts 30°
2026-05-01 12:03 32.65902 -11.83556 35199 ft 505 kts 30°
2026-05-01 12:03 32.71687 -11.78763 35196 ft 507 kts 30°
2026-05-01 12:04 32.77433 -11.73994 35190 ft 507 kts 30°
2026-05-01 12:04 32.83230 -11.69173 35193 ft 507 kts 30°
2026-05-01 12:05 32.88990 -11.64376 35189 ft 506 kts 30°
2026-05-01 12:05 32.97641 -11.57157 35191 ft 506 kts 30°
2026-05-01 12:06 33.03403 -11.52340 35190 ft 506 kts 30°
2026-05-01 12:06 33.09168 -11.47511 35191 ft 506 kts 30°
2026-05-01 12:07 33.14922 -11.42684 35190 ft 506 kts 30°
2026-05-01 12:07 33.20683 -11.37837 35201 ft 507 kts 30°
2026-05-01 12:08 33.26400 -11.32994 35193 ft 507 kts 30°
2026-05-01 12:08 33.32154 -11.28107 35195 ft 507 kts 30°
2026-05-01 12:09 33.37912 -11.23210 35192 ft 507 kts 30°
2026-05-01 12:09 33.43657 -11.18318 35194 ft 507 kts 30°
2026-05-01 12:10 33.52280 -11.10962 35189 ft 507 kts 30°
2026-05-01 12:11 33.60866 -11.03619 35193 ft 507 kts 30°
2026-05-01 12:11 33.66617 -10.98690 35187 ft 508 kts 30°
2026-05-01 12:12 33.72368 -10.93753 35187 ft 508 kts 30°
2026-05-01 12:12 33.78116 -10.88811 35201 ft 508 kts 31°
2026-05-01 12:13 33.83868 -10.83856 35191 ft 508 kts 31°
2026-05-01 12:13 33.89597 -10.78911 35190 ft 508 kts 31°
2026-05-01 12:14 33.95354 -10.73936 35192 ft 508 kts 31°
2026-05-01 12:14 34.01098 -10.68963 35216 ft 508 kts 31°
2026-05-01 12:15 34.06849 -10.63975 35196 ft 509 kts 31°
2026-05-01 12:15 34.12557 -10.59016 35189 ft 509 kts 31°
2026-05-01 12:16 34.18295 -10.54023 35191 ft 508 kts 31°
2026-05-01 12:16 34.24039 -10.49015 35190 ft 508 kts 31°
2026-05-01 12:17 34.29767 -10.44013 35210 ft 508 kts 31°
2026-05-01 12:17 34.35505 -10.38995 35195 ft 509 kts 31°
2026-05-01 12:18 34.41215 -10.33991 35190 ft 509 kts 31°
2026-05-01 12:18 34.46963 -10.28945 35191 ft 509 kts 31°
2026-05-01 12:19 34.52705 -10.23896 35190 ft 509 kts 31°
2026-05-01 12:19 34.58434 -10.18849 35206 ft 509 kts 31°
2026-05-01 12:20 34.64126 -10.13830 35184 ft 509 kts 31°
2026-05-01 12:20 34.69826 -10.08822 35191 ft 508 kts 31°
2026-05-01 12:21 34.75564 -10.03778 35192 ft 508 kts 31°
2026-05-01 12:21 34.81293 -9.98728 35196 ft 508 kts 31°
2026-05-01 12:22 34.86983 -9.93703 35203 ft 509 kts 31°
2026-05-01 12:22 34.92721 -9.88625 35199 ft 510 kts 31°
2026-05-01 12:23 34.98463 -9.83534 35195 ft 510 kts 31°
2026-05-01 12:23 35.04191 -9.78445 35188 ft 509 kts 31°
2026-05-01 12:24 35.09915 -9.73352 35193 ft 508 kts 31°
2026-05-01 12:24 35.15627 -9.68262 35201 ft 509 kts 31°
2026-05-01 12:25 35.24171 -9.60631 35181 ft 509 kts 31°
2026-05-01 12:26 35.29904 -9.55497 35193 ft 509 kts 31°
2026-05-01 12:26 35.38482 -9.47800 35209 ft 509 kts 31°
2026-05-01 12:27 35.47062 -9.40082 35192 ft 510 kts 31°
2026-05-01 12:28 35.55619 -9.32362 35194 ft 510 kts 31°
2026-05-01 12:29 35.64202 -9.24596 35193 ft 510 kts 31°
2026-05-01 12:29 35.72745 -9.16847 35198 ft 510 kts 31°
2026-05-01 12:30 35.81315 -9.09052 35194 ft 510 kts 31°
2026-05-01 12:31 35.87007 -9.03862 35185 ft 509 kts 31°
2026-05-01 12:31 35.92700 -8.98661 35202 ft 507 kts 31°
2026-05-01 12:32 35.98346 -8.93496 35192 ft 507 kts 31°
2026-05-01 12:32 36.06845 -8.85706 35190 ft 508 kts 31°
2026-05-01 12:33 36.12529 -8.80482 35192 ft 508 kts 31°
2026-05-01 12:33 36.18166 -8.75291 35217 ft 508 kts 31°
2026-05-01 12:34 36.23848 -8.70048 35185 ft 509 kts 31°
2026-05-01 12:34 36.29522 -8.64803 35188 ft 508 kts 31°
2026-05-01 12:35 36.35191 -8.59553 35182 ft 507 kts 31°
2026-05-01 12:35 36.40812 -8.54338 35185 ft 507 kts 31°
2026-05-01 12:36 36.46461 -8.49088 35199 ft 507 kts 31°
2026-05-01 12:36 36.52119 -8.43821 35195 ft 509 kts 31°
2026-05-01 12:37 36.57793 -8.38527 35191 ft 509 kts 31°
2026-05-01 12:37 36.63464 -8.33225 35179 ft 509 kts 31°
2026-05-01 12:38 36.69174 -8.27882 35282 ft 519 kts 31°
2026-05-01 12:38 36.72070 -8.25169 35509 ft 522 kts 31°
2026-05-01 12:38 36.74975 -8.22441 35810 ft 523 kts 31°
2026-05-01 12:39 36.77844 -8.19742 36174 ft 522 kts 31°
2026-05-01 12:39 36.80740 -8.17014 36534 ft 522 kts 31°
2026-05-01 12:39 36.83642 -8.14281 36853 ft 522 kts 31°
2026-05-01 12:39 36.86544 -8.11546 37156 ft 522 kts 31°
2026-05-01 12:40 36.89448 -8.08806 37480 ft 522 kts 31°
2026-05-01 12:40 36.92342 -8.06073 37796 ft 522 kts 31°
2026-05-01 12:40 36.95241 -8.03333 38101 ft 522 kts 31°
2026-05-01 12:40 36.98185 -8.00671 38386 ft 519 kts 26°
2026-05-01 12:41 37.01309 -7.98441 38588 ft 514 kts 19°
2026-05-01 12:41 37.04556 -7.96612 38796 ft 510 kts 13°
2026-05-01 12:41 37.07844 -7.95207 38982 ft 502 kts
2026-05-01 12:41 37.11213 -7.94092 39232 ft 500 kts
2026-05-01 12:42 37.14587 -7.93013 39498 ft 499 kts
2026-05-01 12:42 37.17953 -7.91942 39725 ft 498 kts
2026-05-01 12:42 37.21308 -7.90864 39967 ft 498 kts
2026-05-01 12:42 37.24671 -7.89767 40171 ft 498 kts
2026-05-01 12:43 37.28020 -7.88661 40389 ft 498 kts
2026-05-01 12:43 37.31371 -7.87546 40604 ft 498 kts
2026-05-01 12:43 37.34689 -7.86437 40820 ft 497 kts
2026-05-01 12:43 37.38033 -7.85318 40996 ft 497 kts
2026-05-01 12:44 37.44753 -7.83070 41121 ft 500 kts
2026-05-01 12:45 37.57022 -7.78951 41141 ft 495 kts
2026-05-01 12:45 37.64756 -7.76350 41143 ft 492 kts
2026-05-01 12:46 37.70305 -7.74481 41156 ft 492 kts
2026-05-01 12:46 37.76879 -7.72265 41144 ft 492 kts
2026-05-01 12:47 37.83507 -7.70025 41143 ft 494 kts
2026-05-01 12:47 37.90176 -7.67768 41148 ft 495 kts
2026-05-01 12:48 37.96815 -7.65514 41161 ft 498 kts
2026-05-01 12:48 38.03515 -7.63236 41161 ft 499 kts
2026-05-01 12:49 38.10233 -7.60937 41142 ft 501 kts
2026-05-01 12:49 38.16911 -7.58316 41139 ft 503 kts 11°
2026-05-01 12:50 38.23571 -7.55529 41126 ft 501 kts 11°
2026-05-01 12:50 38.30163 -7.52800 41129 ft 499 kts 11°
2026-05-01 12:51 38.36784 -7.50099 41128 ft 498 kts 11°
2026-05-01 12:52 38.46667 -7.46083 41141 ft 496 kts 11°
2026-05-01 12:52 38.56494 -7.42075 41131 ft 496 kts 11°
2026-05-01 12:53 38.66356 -7.38036 41145 ft 496 kts 11°
2026-05-01 12:54 38.72941 -7.35333 41135 ft 497 kts 11°
2026-05-01 12:54 38.82836 -7.31262 41132 ft 498 kts 11°
2026-05-01 12:55 38.92702 -7.27191 41127 ft 500 kts 11°
2026-05-01 12:56 38.99332 -7.24447 41133 ft 500 kts 11°
2026-05-01 12:56 39.05967 -7.21696 41131 ft 501 kts 11°
2026-05-01 12:57 39.12599 -7.18941 41131 ft 501 kts 11°
2026-05-01 12:57 39.22513 -7.14813 41130 ft 500 kts 11°
2026-05-01 12:58 39.29152 -7.12041 41129 ft 500 kts 11°
2026-05-01 12:59 39.39074 -7.07889 41149 ft 499 kts 12°
2026-05-01 12:59 39.48978 -7.03732 41130 ft 499 kts 12°
2026-05-01 13:00 39.58844 -6.99579 41135 ft 498 kts 12°
2026-05-01 13:01 39.68739 -6.95400 41139 ft 498 kts 12°
2026-05-01 13:02 39.78644 -6.91205 41139 ft 499 kts 12°
2026-05-01 13:07 40.42377 -6.43274 41140 ft 503 kts 28°
2026-05-01 13:07 40.45350 -6.40853 41133 ft 503 kts 28°
2026-05-01 13:08 40.51292 -6.36009 41141 ft 501 kts 28°
2026-05-01 13:08 40.57174 -6.31206 41138 ft 501 kts 28°
2026-05-01 13:09 40.63246 -6.26741 41155 ft 497 kts 24°
2026-05-01 13:09 40.69402 -6.22549 41144 ft 497 kts 23°
2026-05-01 13:10 40.75558 -6.18349 41161 ft 498 kts 24°
2026-05-01 13:10 40.81673 -6.14127 41145 ft 499 kts 24°
2026-05-01 13:11 40.87811 -6.09859 41140 ft 499 kts 24°
2026-05-01 13:11 40.93935 -6.05591 41148 ft 499 kts 25°
2026-05-01 13:12 41.00115 -6.01280 41153 ft 499 kts 25°
2026-05-01 13:12 41.06214 -5.97017 41140 ft 499 kts 25°
2026-05-01 13:13 41.12360 -5.92710 41144 ft 499 kts 25°
2026-05-01 13:13 41.18491 -5.88406 41143 ft 498 kts 25°
2026-05-01 13:14 41.24617 -5.84095 41149 ft 498 kts 25°
2026-05-01 13:14 41.30747 -5.79773 41148 ft 498 kts 25°
2026-05-01 13:15 41.36839 -5.75468 41142 ft 498 kts 25°
2026-05-01 13:15 41.42971 -5.71125 41157 ft 498 kts 25°
2026-05-01 13:16 41.49091 -5.66782 41145 ft 498 kts 26°
2026-05-01 13:16 41.55235 -5.62638 41147 ft 496 kts 21°
2026-05-01 13:17 41.67972 -5.55539 41154 ft 495 kts 20°
2026-05-01 13:18 41.77484 -5.50195 41141 ft 496 kts 20°
2026-05-01 13:18 41.83841 -5.46585 41147 ft 496 kts 20°
2026-05-01 13:19 41.90205 -5.42964 41153 ft 496 kts 21°
2026-05-01 13:20 41.99712 -5.37543 41152 ft 496 kts 21°
2026-05-01 13:20 42.06073 -5.33907 41154 ft 496 kts 21°
2026-05-01 13:21 42.15616 -5.28437 41141 ft 496 kts 21°
2026-05-01 13:21 42.21974 -5.24782 41141 ft 496 kts 21°
2026-05-01 13:22 42.28276 -5.21152 41140 ft 496 kts 21°
2026-05-01 13:22 42.34576 -5.17515 41166 ft 495 kts 21°
2026-05-01 13:23 42.40919 -5.13845 41142 ft 495 kts 21°
2026-05-01 13:23 42.47252 -5.10172 41148 ft 495 kts 21°
2026-05-01 13:24 42.53603 -5.06482 41153 ft 496 kts 21°
2026-05-01 13:25 42.63112 -5.00939 41155 ft 496 kts 21°
2026-05-01 13:25 42.69467 -4.97227 41148 ft 496 kts 21°
2026-05-01 13:26 42.75810 -4.93514 41137 ft 496 kts 21°
2026-05-01 13:26 42.82109 -4.89817 41144 ft 496 kts 21°
2026-05-01 13:27 42.88439 -4.86094 41148 ft 495 kts 22°
2026-05-01 13:27 42.97932 -4.80494 41150 ft 496 kts 22°
2026-05-01 13:28 43.07420 -4.74879 41142 ft 495 kts 22°
2026-05-01 13:29 43.20065 -4.67365 41138 ft 495 kts 22°
2026-05-01 13:31 43.38980 -4.56061 41130 ft 495 kts 22°
2026-05-01 13:32 43.54774 -4.46566 41154 ft 494 kts 22°
2026-05-01 13:33 43.69483 -4.37681 41136 ft 494 kts 22°
2026-05-01 13:34 43.82039 -4.30055 41137 ft 494 kts 22°
2026-05-01 13:35 43.91501 -4.24286 41139 ft 494 kts 22°
2026-05-01 13:36 44.00946 -4.18506 41145 ft 495 kts 22°
2026-05-01 13:36 44.10400 -4.12701 41144 ft 495 kts 22°
2026-05-01 13:37 44.16701 -4.08820 41159 ft 495 kts 22°
2026-05-01 13:37 44.22967 -4.04952 41147 ft 495 kts 22°
2026-05-01 13:38 44.32427 -3.99086 41156 ft 495 kts 24°
2026-05-01 13:39 44.38467 -3.94553 41164 ft 496 kts 28°
2026-05-01 13:39 44.44464 -3.89729 41161 ft 496 kts 29°
2026-05-01 13:40 44.50432 -3.84931 41162 ft 496 kts 28°
2026-05-01 13:40 44.56436 -3.80135 41168 ft 496 kts 28°
2026-05-01 13:41 44.62456 -3.75336 41163 ft 496 kts 28°
2026-05-01 13:41 44.68449 -3.70549 41171 ft 496 kts 28°
2026-05-01 13:42 44.74454 -3.65738 41171 ft 495 kts 28°
2026-05-01 13:42 44.80404 -3.60958 41171 ft 495 kts 28°
2026-05-01 13:43 44.86385 -3.56142 41173 ft 495 kts 28°
2026-05-01 13:43 44.92364 -3.51315 41171 ft 495 kts 28°
2026-05-01 13:44 44.98347 -3.46473 41177 ft 495 kts 28°
2026-05-01 13:44 45.04333 -3.41618 41184 ft 495 kts 28°
2026-05-01 13:45 45.10304 -3.36762 41181 ft 494 kts 28°
2026-05-01 13:45 45.16231 -3.31931 41189 ft 494 kts 28°
2026-05-01 13:46 45.22190 -3.27061 41187 ft 494 kts 28°
2026-05-01 13:46 45.28146 -3.22183 41188 ft 494 kts 29°
2026-05-01 13:47 45.34107 -3.17288 41205 ft 494 kts 29°
2026-05-01 13:47 45.40027 -3.12415 41194 ft 494 kts 29°
2026-05-01 13:48 45.45982 -3.07501 41197 ft 494 kts 29°
2026-05-01 13:48 45.51922 -3.02587 41197 ft 493 kts 29°
2026-05-01 13:49 45.57860 -2.97663 41199 ft 493 kts 29°
2026-05-01 13:49 45.63785 -2.92738 41198 ft 492 kts 29°
2026-05-01 13:50 45.69713 -2.87797 41201 ft 492 kts 29°
2026-05-01 13:50 45.75593 -2.82885 41215 ft 492 kts 29°
2026-05-01 13:51 45.81501 -2.77937 41206 ft 492 kts 29°
2026-05-01 13:51 45.87419 -2.72968 41211 ft 491 kts 29°
2026-05-01 13:52 45.93284 -2.68031 41206 ft 491 kts 29°
2026-05-01 13:52 45.99181 -2.63055 41214 ft 490 kts 29°
2026-05-01 13:53 46.05065 -2.58077 41212 ft 490 kts 29°
2026-05-01 13:53 46.13865 -2.50682 41214 ft 488 kts 25°
2026-05-01 13:54 46.20211 -2.47322 41219 ft 485 kts 12°
2026-05-01 13:54 46.26867 -2.45912 41223 ft 483 kts
2026-05-01 13:55 46.33581 -2.44968 41220 ft 484 kts
2026-05-01 13:55 46.40242 -2.43926 41222 ft 485 kts
2026-05-01 13:56 46.46978 -2.42590 41227 ft 487 kts 12°
2026-05-01 13:56 46.53348 -2.39400 41222 ft 490 kts 25°
2026-05-01 13:57 46.58352 -2.35391 41228 ft 490 kts 29°
2026-05-01 13:57 46.65206 -2.29558 41217 ft 491 kts 29°
2026-05-01 13:58 46.71133 -2.24591 41213 ft 492 kts 29°
2026-05-01 13:58 46.77090 -2.19641 41215 ft 492 kts 28°
2026-05-01 13:59 46.83035 -2.14691 41209 ft 492 kts 29°
2026-05-01 13:59 46.88943 -2.09757 41207 ft 492 kts 28°
2026-05-01 14:00 46.95058 -2.05297 41208 ft 491 kts 24°
2026-05-01 14:00 47.00688 -1.99766 41219 ft 490 kts 45°
2026-05-01 14:01 47.02891 -1.95967 41209 ft 490 kts 56°
2026-05-01 14:01 47.04632 -1.91680 41208 ft 488 kts 62°
2026-05-01 14:01 47.07879 -1.82881 41199 ft 490 kts 62°
2026-05-01 14:02 47.11193 -1.74118 41193 ft 492 kts 61°
2026-05-01 14:02 47.14556 -1.65352 41185 ft 493 kts 61°
2026-05-01 14:03 47.18195 -1.56874 41192 ft 494 kts 54°
2026-05-01 14:03 47.22296 -1.48752 41186 ft 494 kts 53°
2026-05-01 14:04 47.26412 -1.40620 41186 ft 494 kts 54°
2026-05-01 14:04 47.29804 -1.33826 41184 ft 494 kts 54°
2026-05-01 14:05 47.34520 -1.24295 41178 ft 494 kts 54°
2026-05-01 14:05 47.38559 -1.16105 41186 ft 493 kts 54°
2026-05-01 14:06 47.42585 -1.07921 41181 ft 492 kts 54°
2026-05-01 14:06 47.46608 -0.99720 41181 ft 491 kts 54°
2026-05-01 14:07 47.50590 -0.91582 41183 ft 491 kts 54°
2026-05-01 14:08 47.55488 -0.78359 41183 ft 489 kts 71°
2026-05-01 14:08 47.57726 -0.68838 41179 ft 489 kts 71°
2026-05-01 14:09 47.60010 -0.59370 41191 ft 488 kts 71°
2026-05-01 14:09 47.62310 -0.49884 41159 ft 489 kts 71°
2026-05-01 14:09 47.63461 -0.45102 40551 ft 497 kts 71°
2026-05-01 14:10 47.64616 -0.40286 39929 ft 495 kts 71°
2026-05-01 14:10 47.65767 -0.35480 39247 ft 494 kts 71°
2026-05-01 14:10 47.66915 -0.30677 38465 ft 494 kts 71°
2026-05-01 14:10 47.68046 -0.25932 37651 ft 493 kts 71°
2026-05-01 14:11 47.69186 -0.21140 37053 ft 489 kts 71°
2026-05-01 14:11 47.71418 -0.11733 36024 ft 478 kts 70°
2026-05-01 14:11 47.72514 -0.07101 35517 ft 474 kts 70°
2026-05-01 14:12 47.73600 -0.02498 35010 ft 470 kts 70°
2026-05-01 14:12 47.74676 0.02075 34517 ft 467 kts 70°
2026-05-01 14:12 47.75742 0.06611 33992 ft 464 kts 69°
2026-05-01 14:12 47.76798 0.11112 33440 ft 460 kts 69°
2026-05-01 14:13 47.77849 0.15596 32913 ft 456 kts 69°
2026-05-01 14:13 47.78538 0.18543 32586 ft 454 kts 69°
2026-05-01 14:13 47.80072 0.24339 31910 ft 447 kts 61°
2026-05-01 14:13 47.81633 0.28288 31453 ft 441 kts 54°
2026-05-01 14:14 47.83463 0.31914 30981 ft 435 kts 46°
2026-05-01 14:14 47.85537 0.35143 30524 ft 429 kts 43°
2026-05-01 14:14 47.87626 0.38299 30020 ft 426 kts 43°
2026-05-01 14:14 47.89672 0.41395 29485 ft 422 kts 44°
2026-05-01 14:15 47.91711 0.44493 28992 ft 418 kts 45°
2026-05-01 14:15 47.93740 0.47592 28490 ft 414 kts 45°
2026-05-01 14:15 47.95744 0.50666 28006 ft 411 kts 46°
2026-05-01 14:15 47.97729 0.53723 27521 ft 408 kts 46°
2026-05-01 14:16 47.99690 0.56750 27057 ft 405 kts 46°
2026-05-01 14:16 48.01643 0.59769 26598 ft 402 kts 47°
2026-05-01 14:16 48.03577 0.62763 26149 ft 399 kts 48°
2026-05-01 14:16 48.05495 0.65738 25696 ft 396 kts 48°
2026-05-01 14:17 48.07380 0.68664 25270 ft 394 kts 48°
2026-05-01 14:17 48.09274 0.71609 24838 ft 392 kts 48°
2026-05-01 14:17 48.11162 0.74545 24405 ft 390 kts 48°
2026-05-01 14:17 48.13037 0.77467 23985 ft 389 kts 48°
2026-05-01 14:18 48.14910 0.80387 23505 ft 388 kts 49°
2026-05-01 14:18 48.16783 0.83311 23015 ft 386 kts 49°
2026-05-01 14:18 48.18634 0.86203 22582 ft 384 kts 49°
2026-05-01 14:18 48.19855 0.88111 22297 ft 382 kts 49°
2026-05-01 14:19 48.22309 0.91952 21736 ft 380 kts 50°
2026-05-01 14:19 48.24111 0.94776 21341 ft 378 kts 50°
2026-05-01 14:19 48.25925 0.97624 20931 ft 377 kts 50°
2026-05-01 14:19 48.27731 1.00464 20523 ft 375 kts 50°
2026-05-01 14:20 48.29530 1.03294 20113 ft 374 kts 50°
2026-05-01 14:20 48.33118 1.08949 19318 ft 373 kts 50°
2026-05-01 14:20 48.34915 1.11786 18907 ft 373 kts 50°
2026-05-01 14:21 48.36708 1.14619 18476 ft 373 kts 49°
2026-05-01 14:21 48.38481 1.17422 18016 ft 373 kts 49°
2026-05-01 14:21 48.40268 1.20251 17571 ft 372 kts 49°
2026-05-01 14:22 48.43227 1.24941 16858 ft 370 kts 50°
2026-05-01 14:22 48.44984 1.27730 16429 ft 364 kts 50°
2026-05-01 14:22 48.47284 1.31384 15855 ft 353 kts 50°
2026-05-01 14:22 48.48405 1.33166 15608 ft 352 kts 50°
2026-05-01 14:23 48.50092 1.35853 15212 ft 352 kts 50°
2026-05-01 14:23 48.51777 1.38543 14812 ft 352 kts 50°
2026-05-01 14:23 48.53461 1.41233 14409 ft 353 kts 50°
2026-05-01 14:23 48.55149 1.43932 13989 ft 353 kts 50°
2026-05-01 14:24 48.56818 1.46602 13539 ft 353 kts 50°
2026-05-01 14:24 48.58508 1.49309 13088 ft 348 kts 50°
2026-05-01 14:24 48.60119 1.51885 12670 ft 331 kts 50°
2026-05-01 14:24 48.61703 1.54422 12300 ft 331 kts 50°
2026-05-01 14:25 48.63262 1.56927 11921 ft 331 kts 50°
2026-05-01 14:25 48.64844 1.59473 11535 ft 331 kts 50°
2026-05-01 14:25 48.66422 1.62015 11154 ft 332 kts 50°
2026-05-01 14:25 48.68011 1.64575 10766 ft 332 kts 50°
2026-05-01 14:26 48.69587 1.67117 10541 ft 327 kts 50°
2026-05-01 14:26 48.72571 1.71921 10223 ft 291 kts 50°
2026-05-01 14:26 48.73918 1.74092 9995 ft 279 kts 51°
2026-05-01 14:27 48.75246 1.76246 9697 ft 279 kts 50°
2026-05-01 14:27 48.76555 1.78370 9413 ft 279 kts 50°
2026-05-01 14:27 48.77877 1.80517 9127 ft 279 kts 50°
2026-05-01 14:28 48.80526 1.84820 8542 ft 279 kts 50°
2026-05-01 14:28 48.81853 1.86979 8270 ft 279 kts 50°
2026-05-01 14:28 48.83180 1.89138 7987 ft 279 kts 50°
2026-05-01 14:28 48.84494 1.91277 7706 ft 280 kts 50°
2026-05-01 14:29 48.85825 1.93446 7405 ft 281 kts 50°
2026-05-01 14:29 48.87163 1.95626 7112 ft 282 kts 50°
2026-05-01 14:30 48.91163 2.02158 6266 ft 274 kts 49°
2026-05-01 14:30 48.92436 2.04326 5911 ft 280 kts 51°
2026-05-01 14:30 48.93757 2.06475 5555 ft 270 kts 48°
2026-05-01 14:31 48.96256 2.10503 5243 ft 255 kts 49°
2026-05-01 14:31 48.97428 2.12418 5118 ft 238 kts 49°
2026-05-01 14:31 48.98518 2.14207 5014 ft 226 kts 49°
2026-05-01 14:31 48.99541 2.15882 4863 ft 205 kts 50°
2026-05-01 14:32 49.00375 2.17547 4658 ft 189 kts 72°
2026-05-01 14:32 49.00628 2.19511 4534 ft 193 kts 87°
2026-05-01 14:32 49.00780 2.21560 4263 ft 194 kts 86°
2026-05-01 14:32 49.00909 2.23549 4047 ft 186 kts 87°
2026-05-01 14:33 49.01018 2.25482 3789 ft 180 kts 89°
2026-05-01 14:33 49.01121 2.27383 3577 ft 182 kts 89°
2026-05-01 14:33 49.01225 2.29306 3306 ft 178 kts 88°
2026-05-01 14:33 49.01320 2.31071 3089 ft 159 kts 89°
2026-05-01 14:34 49.01406 2.32675 2887 ft 144 kts 89°
2026-05-01 14:34 49.01489 2.34208 2700 ft 146 kts 89°
2026-05-01 14:34 49.01570 2.35761 2505 ft 148 kts 89°
2026-05-01 14:34 49.01654 2.37322 2309 ft 146 kts 88°
2026-05-01 14:35 49.01734 2.38832 2128 ft 147 kts 90°
2026-05-01 14:35 49.01821 2.40387 1895 ft 144 kts 89°
2026-05-01 14:35 49.01902 2.41923 1734 ft 145 kts 89°
2026-05-01 14:35 49.01983 2.43445 1560 ft 145 kts 88°
2026-05-01 14:36 49.02069 2.44982 1352 ft 145 kts 87°
2026-05-01 14:36 49.02133 2.46503 1177 ft 142 kts 90°
2026-05-01 14:36 49.02237 2.48004 982 ft 142 kts 86°
2026-05-01 14:36 49.02309 2.49454 790 ft 136 kts 89°
2026-05-01 14:37 49.02383 2.50848 600 ft 130 kts 87°
2026-05-01 14:37 49.02469 2.52268 420 ft 131 kts 90°
2026-05-01 14:37 49.02527 2.53524 361 ft 107 kts 86°
2026-05-01 14:37 49.02570 2.54378 359 ft 53 kts 91°
2026-05-01 14:38 49.02516 2.54735 363 ft 17 kts 107°
2026-05-01 14:38 49.02484 2.54906 360 ft 17 kts 105°
2026-05-01 14:38 49.02471 2.54977 363 ft 8 kts 105°
2026-05-01 14:38 49.02448 2.55120 364 ft 18 kts 98°
2026-05-01 14:39 49.02451 2.55269 366 ft 9 kts 85°
2026-05-01 14:39 49.02453 2.55309 365 ft 0 kts 85°
2026-05-01 14:40 49.02456 2.55367 362 ft 8 kts 85°
2026-05-01 14:40 49.02460 2.55455 363 ft 8 kts 85°
2026-05-01 14:41 49.02433 2.55593 366 ft 17 kts 142°
2026-05-01 14:41 49.02344 2.55622 360 ft 13 kts 175°
2026-05-01 14:41 49.02259 2.55633 361 ft 11 kts 175°
2026-05-01 14:41 49.02182 2.55642 365 ft 11 kts 175°
2026-05-01 14:42 49.02114 2.55651 361 ft 9 kts 175°
2026-05-01 14:42 49.02016 2.55662 362 ft 19 kts 175°
2026-05-01 14:42 49.01925 2.55666 362 ft 12 kts 195°
2026-05-01 14:42 49.01886 2.55557 365 ft 15 kts 265°
2026-05-01 14:43 49.01876 2.55368 365 ft 18 kts 265°
2026-05-01 14:43 49.01865 2.55173 364 ft 18 kts 265°
2026-05-01 14:43 49.01852 2.55035 360 ft 11 kts 243°
2026-05-01 14:43 49.01847 2.54988 363 ft 9 kts 272°
2026-05-01 14:44 49.01836 2.54892 366 ft 12 kts 234°
2026-05-01 14:44 49.01584 2.54888 367 ft 19 kts 175°
2026-05-01 14:44 49.01454 2.54903 365 ft 19 kts 175°
2026-05-01 14:45 49.01308 2.54955 363 ft 23 kts 164°
2026-05-01 14:45 49.01004 2.55086 363 ft 23 kts 164°
2026-05-01 14:45 49.00852 2.55152 363 ft 23 kts 163°
2026-05-01 14:46 49.00701 2.55220 365 ft 23 kts 163°
2026-05-01 14:46 49.00399 2.55351 363 ft 23 kts 164°
2026-05-01 14:46 49.00250 2.55415 364 ft 22 kts 164°
2026-05-01 14:47 49.00116 2.55473 366 ft 18 kts 163°
2026-05-01 14:47 49.00049 2.55504 364 ft 11 kts 163°
2026-05-01 14:47 48.99919 2.55569 367 ft 23 kts 152°
2026-05-01 14:48 48.99798 2.56001 364 ft 23 kts 88°
2026-05-01 14:48 48.99811 2.56247 364 ft 23 kts 84°
2026-05-01 14:48 48.99837 2.56734 359 ft 23 kts 86°
2026-05-01 14:49 48.99863 2.57220 364 ft 23 kts 85°
2026-05-01 14:49 48.99889 2.57711 359 ft 23 kts 85°
2026-05-01 14:50 48.99907 2.58035 364 ft 23 kts 85°
2026-05-01 14:50 49.00135 2.58311 359 ft 18 kts 356°
2026-05-01 14:51 49.00250 2.58298 367 ft 13 kts 353°
2026-05-01 14:51 49.00273 2.58190 368 ft 0 kts 237°
2026-05-01 14:52 49.00268 2.58179 368 ft 0 kts 236°